SBI1074 UWWW-UUDD

Flight info

Callsign SBI1074
Flight time N/A
Altitude 36000
Route DCT REDMI T750 OKSUD T787 URAGO DCT
Aircraft B738/M-SADFGIJ1RWYZ/LB1

Departure

Time 2025-10-03 16:46
Airport Kurumoch International Airport (UWWW)

Arrival

Time N/A
Airport Domodedovo International Airport (UUDD)
Time Latitude Longitude Altitude Speed Heading
2025-10-03 16:27 53.51168 50.15942 429 ft 0 kts 331°
2025-10-03 16:32 53.51158 50.15948 429 ft 2 kts 350°
2025-10-03 16:32 53.51115 50.15974 429 ft 2 kts 339°
2025-10-03 16:33 53.51073 50.16000 428 ft 2 kts 339°
2025-10-03 16:33 53.51059 50.16009 428 ft 2 kts 339°
2025-10-03 16:34 53.51038 50.16022 428 ft 1 kts 332°
2025-10-03 16:34 53.51037 50.16024 428 ft 0 kts 331°
2025-10-03 16:39 53.51043 50.16018 428 ft 2 kts 331°
2025-10-03 16:39 53.51114 50.16023 428 ft 9 kts 53°
2025-10-03 16:40 53.51202 50.16286 426 ft 15 kts 62°
2025-10-03 16:41 53.51349 50.16704 425 ft 11 kts 22°
2025-10-03 16:41 53.51643 50.16550 420 ft 20 kts 340°
2025-10-03 16:42 53.51802 50.16636 414 ft 2 kts 68°
2025-10-03 16:42 53.51803 50.16637 414 ft 0 kts 68°
2025-10-03 16:43 53.51808 50.16659 414 ft 2 kts 68°
2025-10-03 16:43 53.51822 50.16733 414 ft 4 kts 79°
2025-10-03 16:44 53.51805 50.16863 416 ft 10 kts 134°
2025-10-03 16:44 53.51132 50.17283 412 ft 116 kts 160°
2025-10-03 16:45 53.49042 50.18485 853 ft 180 kts 161°
2025-10-03 16:45 53.46639 50.19900 1870 ft 189 kts 158°
2025-10-03 16:46 53.43993 50.21558 2423 ft 213 kts 160°
2025-10-03 16:46 53.41136 50.21659 3390 ft 216 kts 206°
2025-10-03 16:47 53.39058 50.18071 4655 ft 221 kts 244°
2025-10-03 16:47 53.38530 50.15647 5337 ft 221 kts 250°
2025-10-03 16:48 53.37906 50.07696 6853 ft 248 kts 288°
2025-10-03 16:48 53.40045 50.03184 8059 ft 255 kts 327°
2025-10-03 16:49 53.43370 50.01023 9241 ft 260 kts 342°
2025-10-03 16:49 53.46801 49.99075 10390 ft 264 kts 340°
2025-10-03 16:50 53.50330 49.96953 11599 ft 270 kts 339°
2025-10-03 16:50 53.52276 49.95774 12253 ft 275 kts 339°
2025-10-03 16:51 53.55685 49.93708 13086 ft 284 kts 338°
2025-10-03 16:51 53.59569 49.91351 14248 ft 308 kts 338°
2025-10-03 16:52 53.61636 49.90096 14576 ft 323 kts 338°
2025-10-03 16:52 53.68377 49.85991 15527 ft 367 kts 338°
2025-10-03 16:53 53.70800 49.84515 16020 ft 375 kts 338°
2025-10-03 16:53 53.75672 49.81339 17378 ft 376 kts 330°
2025-10-03 16:54 53.79512 49.75689 18690 ft 368 kts 300°
2025-10-03 16:54 53.82514 49.63781 20399 ft 373 kts 288°
2025-10-03 16:55 53.84277 49.55436 21476 ft 380 kts 288°
2025-10-03 16:55 53.86059 49.46990 22501 ft 385 kts 288°
2025-10-03 16:56 53.86966 49.42705 22994 ft 388 kts 288°
2025-10-03 16:56 53.88801 49.34042 23866 ft 394 kts 288°
2025-10-03 16:57 53.90654 49.25281 24795 ft 399 kts 288°
2025-10-03 16:58 53.98980 48.94770 27743 ft 419 kts 301°
2025-10-03 17:00 54.10349 48.65210 30233 ft 434 kts 300°
2025-10-03 17:03 54.26225 48.22784 34391 ft 416 kts 299°
2025-10-03 17:04 54.36476 47.93416 36531 ft 408 kts 298°
2025-10-03 17:07 54.49421 47.55714 36561 ft 408 kts 298°
2025-10-03 17:08 54.59416 47.26243 36562 ft 408 kts 297°
2025-10-03 17:11 54.71921 46.88586 36563 ft 408 kts 296°
2025-10-03 17:12 54.81648 46.58619 36560 ft 410 kts 300°
2025-10-03 17:15 54.97517 46.23212 36561 ft 413 kts 304°
2025-10-03 17:16 55.09895 45.95542 36561 ft 414 kts 304°
2025-10-03 17:19 55.25683 45.59776 36562 ft 414 kts 304°
2025-10-03 17:20 55.37942 45.31654 36535 ft 414 kts 303°
2025-10-03 17:23 55.53570 44.95289 36533 ft 414 kts 301°
2025-10-03 17:24 55.57684 44.61985 36534 ft 402 kts 271°
2025-10-03 17:27 55.58654 44.17558 36535 ft 402 kts 270°
2025-10-03 17:28 55.59349 43.83089 36533 ft 402 kts 270°
2025-10-03 17:31 55.59553 43.38725 36534 ft 402 kts 269°
2025-10-03 17:32 55.59535 43.04215 36534 ft 401 kts 268°
2025-10-03 17:34 55.59402 42.64811 36533 ft 401 kts 268°
2025-10-03 17:36 55.59183 42.30343 36535 ft 401 kts 267°
2025-10-03 17:38 55.58758 41.85963 36534 ft 401 kts 267°
2025-10-03 17:40 55.58314 41.51575 36534 ft 401 kts 266°
2025-10-03 17:42 55.57593 41.07240 36457 ft 401 kts 266°
2025-10-03 17:44 55.56913 40.72854 36338 ft 396 kts 265°
2025-10-03 17:46 55.55905 40.30558 31806 ft 373 kts 264°
2025-10-03 17:48 55.55059 39.99501 28523 ft 352 kts 267°
2025-10-03 17:50 55.57132 39.59673 28479 ft 365 kts 271°
2025-10-03 17:53 55.59581 39.19958 24929 ft 355 kts 272°
2025-10-03 17:53 55.59853 39.15674 24449 ft 353 kts 272°
2025-10-03 17:54 55.60646 39.02895 23006 ft 346 kts 272°
2025-10-03 17:54 55.60905 38.98646 22527 ft 344 kts 272°
2025-10-03 17:54 55.61156 38.94506 22056 ft 342 kts 272°
2025-10-03 17:55 55.61865 38.82302 21484 ft 324 kts 271°
2025-10-03 17:55 55.62278 38.74316 20912 ft 326 kts 271°
2025-10-03 17:56 55.62685 38.66429 20021 ft 321 kts 271°
2025-10-03 17:56 55.63084 38.58686 19494 ft 312 kts 271°
2025-10-03 17:57 55.63467 38.50826 19326 ft 329 kts 271°
2025-10-03 17:57 55.63854 38.42865 18650 ft 323 kts 271°
2025-10-03 17:58 55.64046 38.38956 18496 ft 311 kts 271°
2025-10-03 17:58 55.64586 38.27997 18485 ft 300 kts 271°
2025-10-03 17:59 55.66016 38.20942 18478 ft 319 kts 304°
2025-10-03 17:59 55.69819 38.16514 18067 ft 336 kts 331°
2025-10-03 18:00 55.74080 38.13473 17548 ft 324 kts 333°
2025-10-03 18:00 55.77946 38.09929 17036 ft 305 kts 310°
2025-10-03 18:01 55.79179 38.06982 16798 ft 293 kts 290°
2025-10-03 18:01 55.80418 38.00221 16482 ft 281 kts 270°
2025-10-03 18:02 55.79740 37.93572 16455 ft 275 kts 240°
2025-10-03 18:02 55.75518 37.87187 16479 ft 274 kts 198°
2025-10-03 18:03 55.71706 37.86593 16480 ft 278 kts 183°
2025-10-03 18:03 55.67855 37.86740 16479 ft 278 kts 182°
2025-10-03 18:04 55.64013 37.86324 16182 ft 268 kts 207°
2025-10-03 18:04 55.62290 37.81260 17065 ft 263 kts 268°
2025-10-03 18:05 55.62585 37.78003 17370 ft 274 kts 279°
2025-10-03 18:05 55.64035 37.71541 17853 ft 293 kts 289°
2025-10-03 18:06 55.66853 37.66116 18432 ft 342 kts 342°